�������l�o���
Date,Time,MP-1(��Sv/h),MP-2(��Sv/h),MP-3(��Sv/h),MP-4(��Sv/h),MP-5(��Sv/h),MP-6(��Sv/h),MP-7(��Sv/h),MP-8(��Sv/h),����,����(m/s),���J
2023/04/02,00:00,0.562,0.823,0.497,1.030,0.727,0.322,0.579,0.548,�k��,8.1,��
2023/04/02,00:10,0.563,0.826,0.496,1.028,0.725,0.324,0.579,0.548,�k��,8.2,��
2023/04/02,00:20,0.561,0.825,0.497,1.028,0.726,0.323,0.581,0.548,�k�k��,7.9,��
2023/04/02,00:30,0.562,0.825,0.495,1.026,0.724,0.324,0.581,0.547,�k�k��,7.9,��
2023/04/02,00:40,0.563,0.824,0.496,1.028,0.725,0.322,0.580,0.547,�k�k��,8.5,��
2023/04/02,00:50,0.563,0.824,0.496,1.027,0.725,0.322,0.578,0.547,�k�k��,7.9,��
2023/04/02,01:00,0.562,0.824,0.496,1.029,0.726,0.323,0.579,0.548,�k�k��,7.5,��
2023/04/02,01:10,0.562,0.826,0.497,1.028,0.725,0.322,0.581,0.548,�k�k��,8.2,��
2023/04/02,01:20,0.561,0.825,0.496,1.028,0.726,0.324,0.579,0.549,�k�k��,8.5,��
2023/04/02,01:30,0.562,0.825,0.496,1.026,0.725,0.323,0.579,0.548,�k��,8.5,��
2023/04/02,01:40,0.562,0.825,0.496,1.028,0.725,0.324,0.580,0.546,�k��,8.2,��
2023/04/02,01:50,0.561,0.825,0.497,1.026,0.725,0.324,0.581,0.548,�k�k��,8.4,��
2023/04/02,02:00,0.564,0.826,0.496,1.028,0.727,0.324,0.581,0.548,�k�k��,9.0,��
2023/04/02,02:10,0.562,0.827,0.495,1.028,0.725,0.323,0.581,0.547,�k�k��,8.7,��
2023/04/02,02:20,0.563,0.826,0.497,1.028,0.725,0.322,0.580,0.547,�k��,8.0,��
2023/04/02,02:30,0.564,0.827,0.498,1.027,0.723,0.324,0.580,0.546,�k�k��,8.3,��
2023/04/02,02:40,0.562,0.823,0.498,1.029,0.725,0.322,0.580,0.548,�k�k��,8.3,��
2023/04/02,02:50,0.564,0.823,0.495,1.025,0.723,0.323,0.581,0.549,�k�k��,9.6,��
2023/04/02,03:00,0.563,0.825,0.497,1.028,0.723,0.323,0.579,0.548,�k�k��,8.7,��
2023/04/02,03:10,0.562,0.825,0.495,1.029,0.725,0.323,0.580,0.550,�k�k��,8.5,��
2023/04/02,03:20,0.562,0.826,0.495,1.029,0.726,0.323,0.581,0.549,�k�k��,8.1,��
2023/04/02,03:30,0.562,0.826,0.495,1.029,0.724,0.324,0.580,0.549,�k�k��,8.2,��
2023/04/02,03:40,0.562,0.826,0.495,1.028,0.725,0.323,0.581,0.547,�k��,7.6,��
2023/04/02,03:50,0.562,0.827,0.495,1.027,0.724,0.322,0.581,0.548,�k��,7.7,��
2023/04/02,04:00,0.562,0.824,0.495,1.028,0.726,0.323,0.579,0.548,�k�k��,7.2,��
2023/04/02,04:10,0.561,0.824,0.495,1.027,0.725,0.323,0.581,0.548,�k��,8.0,��
2023/04/02,04:20,0.563,0.822,0.495,1.027,0.724,0.323,0.578,0.548,�k��,8.2,��
2023/04/02,04:30,0.561,0.824,0.495,1.027,0.724,0.321,0.580,0.548,�k��,8.1,��
2023/04/02,04:40,0.562,0.825,0.496,1.027,0.723,0.322,0.581,0.549,�k��,7.4,��
2023/04/02,04:50,0.562,0.823,0.493,1.027,0.724,0.322,0.581,0.547,�k�k��,7.6,��
2023/04/02,05:00,0.561,0.825,0.495,1.026,0.724,0.322,0.580,0.548,�k��,8.6,��
2023/04/02,05:10,0.561,0.825,0.494,1.026,0.724,0.323,0.579,0.547,�k�k��,7.6,��
2023/04/02,05:20,0.562,0.825,0.496,1.027,0.724,0.323,0.580,0.546,�k��,6.9,��
2023/04/02,05:30,0.562,0.824,0.496,1.026,0.723,0.323,0.580,0.548,�k��,7.1,��
2023/04/02,05:40,0.560,0.824,0.494,1.026,0.723,0.322,0.578,0.547,�k��,7.6,��
2023/04/02,05:50,0.560,0.824,0.496,1.025,0.724,0.322,0.580,0.547,�k�k��,7.4,��
2023/04/02,06:00,0.561,0.824,0.496,1.028,0.724,0.325,0.581,0.547,�k�k��,6.6,��
2023/04/02,06:10,0.561,0.823,0.495,1.026,0.723,0.321,0.580,0.547,�k�k��,6.4,��
2023/04/02,06:20,0.561,0.823,0.496,1.024,0.723,0.322,0.580,0.548,�k�k��,6.7,��
2023/04/02,06:30,0.562,0.823,0.495,1.027,0.725,0.322,0.579,0.548,�k�k��,8.0,��
2023/04/02,06:40,0.560,0.825,0.496,1.027,0.722,0.322,0.580,0.548,�k�k��,7.0,��
2023/04/02,06:50,0.560,0.824,0.496,1.026,0.724,0.323,0.580,0.547,�k�k��,6.7,��
2023/04/02,07:00,0.562,0.826,0.494,1.029,0.724,0.323,0.579,0.549,�k�k��,7.2,��
2023/04/02,07:10,0.562,0.824,0.496,1.027,0.725,0.323,0.579,0.548,�k�k��,7.0,��
2023/04/02,07:20,0.561,0.825,0.495,1.028,0.725,0.321,0.579,0.548,�k�k��,6.7,�L
2023/04/02,07:30,0.561,0.825,0.496,1.029,0.725,0.322,0.580,0.547,�k�k��,6.1,�L
2023/04/02,07:40,0.562,0.824,0.496,1.027,0.725,0.323,0.580,0.550,�k�k��,7.0,�L
2023/04/02,07:50,0.562,0.825,0.494,1.027,0.725,0.321,0.579,0.547,�k�k��,8.7,�L
2023/04/02,08:00,0.560,0.826,0.495,1.027,0.726,0.323,0.579,0.549,�k�k��,8.4,�L
2023/04/02,08:10,0.562,0.824,0.495,1.027,0.725,0.323,0.580,0.548,�k�k��,7.1,�L
2023/04/02,08:20,0.559,0.826,0.494,1.026,0.725,0.324,0.578,0.548,�k�k��,8.3,�L
2023/04/02,08:30,0.562,0.825,0.496,1.026,0.725,0.322,0.579,0.547,�k�k��,7.1,�L
2023/04/02,08:40,0.561,0.824,0.495,1.028,0.724,0.324,0.578,0.548,�k,6.2,��
2023/04/02,08:50,0.561,0.825,0.495,1.027,0.725,0.323,0.580,0.548,�k,6.6,�L
2023/04/02,09:00,0.562,0.825,0.495,1.026,0.725,0.322,0.578,0.548,�k,5.0,�L
2023/04/02,09:10,0.562,0.825,0.496,1.029,0.725,0.321,0.578,0.548,�k,6.3,�L
2023/04/02,09:20,0.562,0.824,0.495,1.028,0.725,0.322,0.578,0.547,�k�k��,5.8,�L
2023/04/02,09:30,0.561,0.826,0.495,1.026,0.726,0.323,0.578,0.547,�k�k��,5.3,��
2023/04/02,09:40,0.561,0.826,0.496,1.028,0.725,0.322,0.576,0.547,�k�k��,6.0,��
2023/04/02,09:50,0.560,0.826,0.495,1.028,0.725,0.322,0.577,0.548,�k,5.1,��
2023/04/02,10:00,0.561,0.825,0.494,1.026,0.726,0.323,0.578,0.549,�k,5.2,��
2023/04/02,10:10,0.562,0.825,0.495,1.027,0.724,0.323,0.577,0.548,�k,6.1,��
2023/04/02,10:20,0.563,0.826,0.497,1.027,0.725,0.324,0.576,0.549,�k,6.3,��
2023/04/02,10:30,0.562,0.826,0.496,1.029,0.725,0.323,0.576,0.548,�k,6.9,��
2023/04/02,10:40,0.562,0.826,0.497,1.026,0.727,0.324,0.577,0.548,�k,7.9,��
2023/04/02,10:50,0.560,0.824,0.497,1.028,0.726,0.323,0.576,0.549,�k,6.5,��
2023/04/02,11:00,0.563,0.825,0.494,1.029,0.724,0.323,0.576,0.548,�k,6.2,��
2023/04/02,11:10,0.562,0.823,0.495,1.027,0.723,0.323,0.578,0.548,�k�k��,6.2,��
2023/04/02,11:20,0.561,0.826,0.497,1.029,0.722,0.323,0.577,0.547,�k�k��,5.8,��
2023/04/02,11:30,0.561,0.824,0.496,1.026,0.724,0.323,0.576,0.546,�k,6.9,��
2023/04/02,11:40,0.563,0.823,0.495,1.028,0.721,0.322,0.575,0.546,�k�k��,6.9,��
2023/04/02,11:50,0.561,0.824,0.498,1.026,0.724,0.323,0.577,0.549,�k,5.5,��
2023/04/02,12:00,0.561,0.824,0.495,1.028,0.723,0.322,0.577,0.547,�k,5.8,��
2023/04/02,12:10,0.563,0.822,0.495,1.028,0.722,0.323,0.577,0.547,�k�k��,5.6,��
2023/04/02,12:20,0.561,0.823,0.496,1.028,0.723,0.322,0.577,0.544,�k,5.6,��
2023/04/02,12:30,0.563,0.823,0.496,1.030,0.723,0.323,0.577,0.546,�k,6.2,��
2023/04/02,12:40,0.562,0.822,0.496,1.031,0.724,0.324,0.577,0.546,�k,6.0,��
2023/04/02,12:50,0.562,0.822,0.496,1.030,0.723,0.324,0.577,0.545,�k�k��,4.7,��
2023/04/02,13:00,0.563,0.826,0.496,1.029,0.723,0.324,0.577,0.547,�k,5.8,��
2023/04/02,13:10,0.563,0.827,0.497,1.029,0.727,0.323,0.576,0.547,�k�k��,6.4,��
2023/04/02,13:20,0.563,0.825,0.496,1.028,0.723,0.322,0.578,0.547,�k�k��,6.4,��
2023/04/02,13:30,0.562,0.825,0.495,1.029,0.724,0.323,0.578,0.546,�k,7.1,��
2023/04/02,13:40,0.563,0.823,0.497,1.031,0.726,0.323,0.576,0.547,�k,7.2,��
2023/04/02,13:50,0.565,0.825,0.497,1.031,0.723,0.323,0.577,0.547,�k,6.6,��
2023/04/02,14:00,0.562,0.824,0.497,1.030,0.724,0.323,0.576,0.546,�k,6.3,��
2023/04/02,14:10,0.564,0.826,0.496,1.029,0.725,0.324,0.578,0.546,�k�k��,5.8,��
2023/04/02,14:20,0.563,0.823,0.495,1.031,0.724,0.324,0.577,0.546,�k�k��,5.4,��
2023/04/02,14:30,0.563,0.824,0.497,1.027,0.724,0.324,0.578,0.547,�k,5.5,��
2023/04/02,14:40,0.565,0.826,0.499,1.031,0.725,0.323,0.577,0.547,�k,5.9,��
2023/04/02,14:50,0.563,0.825,0.496,1.030,0.724,0.324,0.576,0.549,�k�k��,5.8,��
2023/04/02,15:00,0.563,0.824,0.497,1.030,0.724,0.323,0.578,0.548,�k,5.2,��
2023/04/02,15:10,0.563,0.825,0.498,1.029,0.725,0.324,0.575,0.547,�k�k��,5.0,��
2023/04/02,15:20,0.564,0.826,0.497,1.030,0.726,0.323,0.577,0.546,�k�k��,5.5,��
2023/04/02,15:30,0.565,0.827,0.498,1.030,0.724,0.323,0.577,0.548,�k�k��,4.9,��
2023/04/02,15:40,0.565,0.827,0.497,1.029,0.724,0.324,0.577,0.546,�k�k��,4.3,��
2023/04/02,15:50,0.565,0.828,0.496,1.028,0.725,0.324,0.578,0.548,�k�k��,5.5,��
2023/04/02,16:00,0.561,0.826,0.497,1.030,0.725,0.324,0.578,0.546,�k�k��,4.9,��
2023/04/02,16:10,0.564,0.826,0.496,1.029,0.724,0.323,0.576,0.548,�k�k��,4.5,��
2023/04/02,16:20,0.562,0.826,0.497,1.031,0.725,0.324,0.578,0.548,�k�k��,4.1,��
2023/04/02,16:30,0.561,0.826,0.496,1.031,0.725,0.322,0.576,0.549,�k,4.8,��
2023/04/02,16:40,0.563,0.825,0.495,1.031,0.725,0.323,0.578,0.550,�k�k��,4.7,��
2023/04/02,16:50,0.562,0.827,0.496,1.030,0.723,0.322,0.578,0.549,�k�k��,5.6,��
2023/04/02,17:00,0.564,0.827,0.496,1.030,0.726,0.322,0.578,0.551,�k,4.9,��
2023/04/02,17:10,0.562,0.828,0.496,1.032,0.726,0.323,0.577,0.547,�k,4.8,��
2023/04/02,17:20,0.563,0.826,0.497,1.030,0.726,0.323,0.577,0.548,�k,4.3,��
2023/04/02,17:30,0.563,0.826,0.496,1.030,0.726,0.322,0.579,0.549,�k,3.7,��
2023/04/02,17:40,0.563,0.827,0.497,1.030,0.727,0.322,0.579,0.549,�k,4.2,��
2023/04/02,17:50,0.563,0.826,0.496,1.029,0.727,0.322,0.578,0.548,�k,4.7,��
2023/04/02,18:00,0.564,0.826,0.495,1.031,0.729,0.323,0.581,0.549,�k,3.8,��
2023/04/02,18:10,0.562,0.827,0.496,1.027,0.726,0.323,0.580,0.548,�k�k��,4.2,��
2023/04/02,18:20,0.562,0.824,0.495,1.032,0.724,0.324,0.579,0.549,�k�k��,5.2,��
2023/04/02,18:30,0.561,0.826,0.495,1.029,0.723,0.323,0.580,0.549,�k�k��,5.3,��
2023/04/02,18:40,0.562,0.824,0.495,1.031,0.727,0.323,0.579,0.546,�k�k��,5.4,��
2023/04/02,18:50,0.561,0.825,0.495,1.031,0.727,0.323,0.580,0.549,�k�k��,6.3,��
2023/04/02,19:00,0.562,0.825,0.495,1.030,0.723,0.322,0.580,0.548,�k��,6.3,��
2023/04/02,19:10,0.562,0.824,0.497,1.029,0.726,0.322,0.579,0.548,�k��,6.9,��
2023/04/02,19:20,0.561,0.826,0.497,1.030,0.725,0.322,0.580,0.547,�k�k��,7.4,��
2023/04/02,19:30,0.563,0.824,0.495,1.028,0.725,0.324,0.578,0.546,�k��,6.9,��
2023/04/02,19:40,0.562,0.827,0.497,1.029,0.725,0.322,0.580,0.548,�k��,8.0,��
2023/04/02,19:50,0.563,0.828,0.496,1.030,0.726,0.322,0.581,0.549,�k��,7.3,��
2023/04/02,20:00,0.562,0.826,0.497,1.029,0.726,0.322,0.580,0.547,�k��,7.9,��
2023/04/02,20:10,0.563,0.825,0.495,1.031,0.727,0.324,0.579,0.546,�k��,6.9,��
2023/04/02,20:20,0.561,0.826,0.496,1.029,0.726,0.323,0.581,0.548,�k��,7.1,��
2023/04/02,20:30,0.561,0.824,0.496,1.031,0.725,0.322,0.580,0.548,�k�k��,6.1,��
2023/04/02,20:40,0.560,0.827,0.495,1.032,0.725,0.322,0.581,0.547,�k�k��,6.6,��
2023/04/02,20:50,0.563,0.828,0.495,1.032,0.726,0.323,0.581,0.548,�k�k��,6.3,��
2023/04/02,21:00,0.562,0.826,0.495,1.031,0.724,0.322,0.581,0.547,�k�k��,6.7,��
2023/04/02,21:10,0.561,0.826,0.496,1.029,0.724,0.323,0.580,0.548,�k�k��,6.9,��
2023/04/02,21:20,0.562,0.824,0.494,1.029,0.723,0.323,0.580,0.548,�k�k��,6.8,��
2023/04/02,21:30,0.560,0.826,0.496,1.029,0.724,0.321,0.580,0.548,�k�k��,5.8,��
2023/04/02,21:40,0.561,0.824,0.495,1.029,0.728,0.321,0.579,0.548,�k�k��,6.9,��
2023/04/02,21:50,0.561,0.824,0.495,1.030,0.725,0.323,0.580,0.546,�k�k��,6.8,��
2023/04/02,22:00,0.562,0.826,0.495,1.027,0.724,0.322,0.581,0.547,�k�k��,6.6,��
2023/04/02,22:10,0.561,0.824,0.498,1.029,0.726,0.322,0.582,0.548,�k�k��,5.8,��
2023/04/02,22:20,0.561,0.824,0.496,1.029,0.726,0.322,0.581,0.547,�k�k��,6.1,��
2023/04/02,22:30,0.562,0.826,0.495,1.029,0.726,0.323,0.580,0.548,�k,5.7,��
2023/04/02,22:40,0.561,0.825,0.496,1.030,0.727,0.322,0.579,0.548,�k,5.8,��
2023/04/02,22:50,0.561,0.824,0.493,1.029,0.726,0.322,0.580,0.547,�k,5.1,��
2023/04/02,23:00,0.563,0.824,0.496,1.029,0.725,0.321,0.580,0.548,�k�k��,4.7,��
2023/04/02,23:10,0.560,0.824,0.495,1.030,0.726,0.322,0.578,0.547,�k�k��,5.4,��
2023/04/02,23:20,0.562,0.825,0.494,1.031,0.724,0.322,0.580,0.547,�k�k��,6.4,��
2023/04/02,23:30,0.561,0.826,0.495,1.030,0.725,0.322,0.581,0.547,�k�k��,6.3,��
2023/04/02,23:40,0.562,0.825,0.496,1.033,0.725,0.322,0.578,0.549,�k�k��,5.5,��
2023/04/02,23:50,0.561,0.824,0.496,1.032,0.727,0.324,0.581,0.548,�k,5.1,��
